Location: Casteau
(50.5142°N, 4.0161°E)
Time: 06:21:55
(UTC+00:00)

Transit 2A - Pass Details

Date: 06 August 2021
Orbit: 594 x 964 km, 66.7° (Epoch: 24 September)

Event Time Altitude Azimuth Distance (km) Brightness Sun altitude
Rises 09:18:18 0° 309° (NW) 3,048 8.7 44.5°
Reaches altitude 10° 09:21:52 10° 337° (NNW) 2,213 8.1 45.0°
Maximum altitude 09:24:16 13° 6° (N) 2,054 8.1 45.3°
Drops below altitude 10° 09:26:45 10° 34° (NE) 2,329 8.6 45.6°
Sets 09:30:43 0° 61° (ENE) 3,355 9.5 46.1°
